Flag Weather past 2 weeks in Wellington, New Zealand

Now
64 °F

Mild.


Feels Like: 64 °F
Forecast: 52 / 63 °F
Wind: 28 mph from North

Location: Wellington Airport

Current Time: Nov 21, 2014 at 3:49:02 PM

Latest Report: Nov 21, 2014 at 3:30 PM


Visibility: N/A

Pressure: 29.89 "Hg

Humidity: 64%

Dew point: 52 °F

Location of WellingtonLocation

Historic Weather in Wellington — Graph

°F

Wellington temperature yesterday

Maximum temperature yesterday: 61 °F (at 11:00 AM)
Minimum temperature yesterday: 45 °F (at 6:30 AM)
Average temperature yesterday: 55 °F

Past Weeks' High & Low Weather Summary

 TemperatureHumidityPressure
High70 °F (Nov 10, 1:30 PM)100% (Nov 17, 8:00 PM)30.21 "Hg (Nov 17, 8:00 PM)
Low45 °F (Nov 8, 4:00 AM)34% (Nov 15, 9:00 PM)29.15 "Hg (Nov 12, 4:00 PM)
Average57 °F67%29.69 "Hg
* Reported Nov 6 2:00 PM — Nov 21 2:30 PM, Wellington, Weather by CustomWeather, © 2014

Note: Actual official high and low records may vary slightly from our data, if they occured in-between our weather recording intervals... More about our weather records

Advertising

Wellington weather history for previous 24 hours

 ConditionsComfort  
Time TempWeatherWind HumidityBarometerVisibility
2:30 PM
Nov 21
68 °FMild.25 mph60%29.89 "HgN/A
2:00 PM68 °FMild.24 mph60%29.89 "HgN/A
1:30 PM68 °FMild.24 mph60%29.89 "HgN/A
1:00 PM66 °FMild.21 mph60%29.89 "HgN/A
12:30 PM66 °FPassing clouds.21 mph64%29.89 "HgN/A
12:00 PM66 °FPassing clouds.23 mph60%29.92 "HgN/A
11:30 AM66 °FMild.23 mph64%29.92 "HgN/A
11:00 AM64 °FMild.23 mph64%29.92 "HgN/A
10:30 AM66 °FMild.23 mph60%29.92 "HgN/A
10:00 AM63 °FMild.22 mph64%29.92 "HgN/A
9:30 AM63 °FMild.18 mph64%29.92 "HgN/A
9:00 AM63 °FMild.21 mph64%29.92 "HgN/A
8:30 AM61 °FCool.17 mph63%29.92 "HgN/A
8:00 AM59 °FCool.16 mph72%29.89 "HgN/A
7:30 AM59 °FCool.18 mph72%29.89 "HgN/A
7:00 AM57 °FCool.20 mph72%29.89 "HgN/A
6:30 AM57 °FCool.20 mph72%29.89 "HgN/A
6:00 AM57 °FCool.17 mph67%29.89 "HgN/A
5:30 AM57 °FCool.15 mph72%29.86 "HgN/A
5:00 AM55 °FCool.14 mph77%29.86 "HgN/A
4:30 AM55 °FCool.20 mph77%29.86 "HgN/A
4:00 AM55 °FCool.21 mph77%29.89 "HgN/A
3:30 AM55 °FPassing clouds.20 mph77%29.89 "HgN/A
3:00 AM55 °FPassing clouds.22 mph77%29.89 "HgN/A
2:30 AM55 °FCool.22 mph77%29.89 "HgN/A
2:00 AM57 °FCool.22 mph67%29.89 "HgN/A
1:30 AM57 °FCool.21 mph63%29.89 "HgN/A
1:00 AM59 °FRefreshingly cool.20 mph51%29.89 "HgN/A
12:30 AM59 °FRefreshingly cool.18 mph48%29.89 "HgN/A
12:00 AM59 °FRefreshingly cool.21 mph55%29.89 "HgN/A
11:30 PM
Nov 20
59 °FRefreshingly cool.21 mph55%29.89 "HgN/A
11:00 PM57 °FCool.21 mph67%29.86 "HgN/A
10:30 PM57 °FCool.22 mph67%29.86 "HgN/A
10:00 PM57 °FCool.21 mph67%29.86 "HgN/A
9:30 PM57 °FCool.22 mph72%29.86 "HgN/A
9:00 PM57 °FCool.18 mph67%29.86 "HgN/A
8:30 PM57 °FCool.18 mph67%29.86 "HgN/A
8:00 PM57 °FCool.20 mph67%29.86 "HgN/A
7:30 PM57 °FCool.21 mph67%29.86 "HgN/A
7:00 PM57 °FCool.23 mph67%29.86 "HgN/A
6:30 PM57 °FCool.23 mph67%29.86 "HgN/A
6:00 PM57 °FCool.21 mph67%29.86 "HgN/A
5:30 PM59 °FRefreshingly cool.20 mph55%29.86 "HgN/A
5:00 PM59 °FRefreshingly cool.21 mph59%29.86 "HgN/A
4:30 PM59 °FRefreshingly cool.23 mph55%29.86 "HgN/A
4:00 PM59 °FRefreshingly cool.26 mph55%29.86 "HgN/A
3:30 PM61 °FRefreshingly cool.28 mph52%29.86 "HgN/A
3:00 PM59 °FRefreshingly cool.28 mph51%29.86 "HgN/A
Weather by CustomWeather, © 2014

See weather overviewHow to use our weather pages